Location: Notre Dame Regional High School Observatory
(37.3056°N, 89.6097°W)
Time: 01:51:07
(UTC-05:00)

Okean-O - Visible Passes

Search period start: 03 September 2015 00:00
Search period end: 13 September 2015 00:00
Orbit: 640 x 643 km, 98.1° (Epoch: 02 September)

Date Brightness Start Highest point End Pass type
(mag) Time Alt. Az. Time Alt. Az. Time Alt. Az.
03 Sep 5.5 03:32:33 10° ENE 03:33:56 12° E 03:35:36 10° ESE visible
03 Sep 2.7 05:06:33 10° N 05:10:54 56° WNW 05:13:41 21° SW visible
04 Sep 4.8 03:54:45 10° NE 03:58:07 22° E 04:00:11 16° SE visible
04 Sep 3.5 05:30:48 10° N 05:34:43 30° WNW 05:37:48 14° SW visible
05 Sep 3.8 04:18:01 10° NNE 04:22:11 39° E 04:24:18 24° SSE visible
05 Sep 4.2 05:55:29 10° NNW 05:58:28 17° WNW 06:01:17 10° WSW visible
06 Sep 2.7 04:41:42 10° NNE 04:46:09 76° ESE 04:48:24 29° S visible
07 Sep 5.5 03:31:50 10° ENE 03:33:01 11° E 03:34:30 10° ESE visible
07 Sep 2.7 05:05:39 10° N 05:10:01 58° WNW 05:12:31 24° SW visible
08 Sep 4.8 03:53:54 10° NE 03:57:13 21° E 03:59:00 17° SE visible
08 Sep 3.5 05:29:53 10° N 05:33:49 31° WNW 05:36:37 16° SW visible
09 Sep 3.9 04:17:09 10° NNE 04:21:17 38° E 04:23:07 26° SE visible
09 Sep 4.2 05:54:31 10° NNW 05:57:34 18° WNW 06:00:28 10° WSW visible
10 Sep 2.7 04:40:48 10° NNE 04:45:14 73° ESE 04:47:13 32° S visible
11 Sep 5.5 03:31:09 10° ENE 03:32:05 11° E 03:33:21 10° ESE visible
11 Sep 2.6 05:04:44 10° N 05:09:07 59° WNW 05:11:18 28° SW visible
12 Sep 4.9 03:53:03 10° NE 03:56:17 20° E 03:57:48 18° ESE visible
12 Sep 3.4 05:28:57 10° N 05:32:55 32° WNW 05:35:24 18° WSW visible
